CZ-6A DEB, 61300

Orbit data source: Space-Track

CZ-6A DEB, 61300 is space debris in LEO originally from a launch on Tue, 06 Aug 2024 UTC launched from the Taiyaun Space Center, China (TSC). Debris objects in space refer to the collection of defunct objects orbiting the Earth. Examples of debris include non-operational satellites, rocket bodies, and fragments generated from explosions, collisions, or faulty payload assembly.

Loading next visibility...
Identifier
61300, 2024-140TM
Orbit
LEO
Country
Flag of CNCN / PRC
Related business
Manufacturer
SAST
Mission
Spacecraft
Bus & Motor
Unknown
Mass
Unknown
Launch date (UTC)
2024-08-06 (2 years ago)
Launch vehicle
Unknown
Launch site
Taiyaun Space Center, China (TSC)
Object type
Payload
Rocket body
Debris
Shape & HBR
Unknown shape, 0.1 m
Radar Cross Section
Medium (>0.1 m² and <1 m²)

Expand to show TLE details & history
Last TLE update: 16 hours ago

TLE from 16 hours ago
0 CZ-6A DEB
1 61300U 24140TM  26171.29376501  .00003321  00000-0  56567-3 0  9992
2 61300  89.0355 272.4356 0133584 254.6370 104.0051 14.63077478 96397
Epoch: 2026-06-20T07:03Z
TLE epoch observation values (Epoch: 2026-06-20T07:03:01.296Z)
Latitude
-0.00006°
Longitude
-101.83026°
Altitude
710.383 km
Speed
7.488 km/s
True Right ascension
18h 09m 44s
True Declination
0° 00' 00"
Sunlit
Object was in full shadow at epoch
Visualization orbit readout
Latitude
Unknown
Longitude
Unknown
Altitude
Unknown
Speed
Unknown
Apparent Right ascension
Unknown
Apparent Declination
Unknown
Sunlit
N/A
Visualization observer readout
Local Sidereal Time
10:18:09
Azimuth
Unknown
Elevation
Unknown
Doppler factor
Unknown
Orbital elements
Apogee altitude
774.431 km
Perigee altitude
585.856 km
Semi-major axis
7,058.28 km
Eccentricity
0.01336
Inclination
89.0355°
RAAN
272.4356°
Arg. of periapsis
254.637°
True anomaly
105.48421°
Mean anomaly
104.0051°
Eccentric anomaly
104.74527°
Mean motion
3.66012 °/min
Orbital period
98.36 mins
BSTAR
0.00056567
Loading maneuver chart data...
Computing Atmospheric mass density...
Loading historical data...
Loading historical data...
Loading historical data...
Loading historical data...
Loading historical data...
Loading historical data...
Loading historical data...

Documentation

Showing up to 5 results
|